Weather History for Jackson, WY

Change the Weather History Date:

Saturday, October 13, 2012

  Actual Average Record
Temperature  
Mean Temperature 42 °F -  
Max Temperature 53 °F 55 °F 72 °F (1964)
Min Temperature 32 °F 24 °F 11 °F (1969)
Degree Days  
Heating Degree Days 22    
Moisture  
Dew Point 34 °F    
Average Humidity 66    
Maximum Humidity 87    
Minimum Humidity 47    
Precipitation  
Precipitation 0.00 in - - ()
Sea Level Pressure  
Sea Level Pressure 30.11 in    
Wind  
Wind Speed 5 mph (SW)    
Max Wind Speed 17 mph    
Max Gust Speed 23 mph    
Visibility 10 miles    
Events      
Averages and records for this station are not official NWS values.
T = Trace of Precipitation, MM = Missing Value Source: NWS Daily Summary

Daily Weather History Graph

Daily Weather History Graph

Search for Another Location

Airport:

Trip Planner

Search our weather history database for the weather conditions in past years. The results will help you decide how hot, cold, wet, or windy it might be!

Date:

Astronomy

Oct. 13, 2012 Rise Set
Actual Time 7:35 AM MDT 6:41 PM MDT
Civil Twilight 7:06 AM MDT 7:10 PM MDT
Nautical Twilight 6:33 AM MDT 7:43 PM MDT
Astronomical Twilight 6:00 AM MDT 8:17 PM MDT
Moon 5:26 AM MDT (10/13) 5:29 PM MDT (10/13)
Length of Visible Light 12h 04m
Length of Day
11h 06m
Waning Crescent, 4% of the Moon is Illuminated
Oct 13
Waning Crescent
Oct 15
New
Oct 21
First Quarter
Oct 29
Full
Nov 6
Last Quarter

Hourly Weather History & Observations

Time (MDT) Temp. Windchill Dew Point Humidity Pressure Visibility Wind Dir Wind Speed Gust Speed Precip Events Conditions
12:35 AM 46.4 °F - 30.2 °F 53% 29.97 in 10.0 mi Calm Calm - N/A   Mostly Cloudy
12:55 AM 44.6 °F 40.2 °F 30.2 °F 57% 29.98 in 10.0 mi North 8.1 mph - N/A   Overcast
1:15 AM 46.4 °F 42.9 °F 30.2 °F 53% 29.97 in 10.0 mi East 6.9 mph - N/A   Overcast
1:35 AM 44.6 °F 42.2 °F 30.2 °F 57% 29.98 in 10.0 mi East 4.6 mph - N/A   Scattered Clouds
1:55 AM 46.4 °F 43.5 °F 30.2 °F 53% 29.98 in 10.0 mi SW 5.8 mph - N/A   Scattered Clouds
2:15 AM 44.6 °F 42.2 °F 33.8 °F 66% 29.99 in 10.0 mi SW 4.6 mph - N/A   Partly Cloudy
2:35 AM 44.6 °F 39.7 °F 35.6 °F 71% 29.98 in 10.0 mi SW 9.2 mph - N/A   Clear
2:55 AM 44.6 °F 40.2 °F 35.6 °F 71% 29.99 in 10.0 mi SSW 8.1 mph - N/A   Clear
3:15 AM 42.8 °F - 35.6 °F 76% 29.99 in 10.0 mi Calm Calm - N/A   Clear
3:35 AM 42.8 °F - 35.6 °F 76% 30.00 in 10.0 mi Calm Calm - N/A   Clear
3:55 AM 42.8 °F 41.1 °F 35.6 °F 76% 30.00 in 10.0 mi East 3.5 mph - N/A   Clear
4:15 AM 37.4 °F 33.8 °F 30.2 °F 75% 30.01 in 10.0 mi North 4.6 mph - N/A   Clear
4:55 AM 33.8 °F 27.7 °F 28.4 °F 81% 30.02 in 10.0 mi North 6.9 mph - N/A   Clear
5:15 AM 33.8 °F 27.7 °F 28.4 °F 81% 30.03 in 10.0 mi North 6.9 mph - N/A   Clear
5:35 AM 33.8 °F 27.7 °F 30.2 °F 87% 30.03 in 10.0 mi North 6.9 mph - N/A   Clear
5:55 AM 33.8 °F 27.7 °F 28.4 °F 81% 30.04 in 10.0 mi NNE 6.9 mph - N/A   Clear
6:15 AM 32.0 °F 24.2 °F 28.4 °F 87% 30.04 in 10.0 mi North 9.2 mph - N/A   Clear
6:35 AM 33.8 °F 29.6 °F 28.4 °F 81% 30.05 in 10.0 mi NNE 4.6 mph - N/A   Clear
6:53 AM 32.0 °F 28.7 °F 28.4 °F 87% 30.07 in 10.0 mi Variable 3.5 mph - N/A   Scattered Clouds
7:55 AM 33.8 °F - 28.4 °F 81% 30.09 in 10.0 mi Calm Calm - N/A   Scattered Clouds
8:51 AM 37.4 °F - 33.8 °F 87% 30.11 in 10.0 mi Calm Calm - N/A   Mostly Cloudy
9:51 AM 46.4 °F - 35.6 °F 66% 30.12 in 10.0 mi Calm Calm - N/A   Scattered Clouds
10:52 AM 53.6 °F - 33.8 °F 47% 30.13 in 10.0 mi South 15.0 mph - N/A   Scattered Clouds
11:51 AM 53.6 °F - 33.8 °F 47% 30.14 in 10.0 mi West 11.5 mph 23.0 mph N/A   Mostly Cloudy
12:53 PM 51.8 °F - 33.8 °F 50% 30.15 in 10.0 mi SW 17.3 mph 23.0 mph N/A   Mostly Cloudy
1:52 PM 53.6 °F - 33.8 °F 47% 30.15 in 10.0 mi WSW 8.1 mph 18.4 mph N/A   Overcast
2:51 PM 51.8 °F - 33.8 °F 50% 30.17 in 10.0 mi SSW 8.1 mph - N/A   Mostly Cloudy
3:51 PM 51.8 °F - 37.4 °F 58% 30.19 in 10.0 mi WSW 4.6 mph - N/A   Mostly Cloudy
4:51 PM 51.8 °F - 35.6 °F 54% 30.19 in 10.0 mi SW 8.1 mph - N/A   Mostly Cloudy
5:51 PM 51.8 °F - 33.8 °F 50% 30.20 in 10.0 mi Calm Calm - N/A   Mostly Cloudy
6:51 PM 51.8 °F - 33.8 °F 50% 30.21 in 10.0 mi SW 4.6 mph - N/A   Mostly Cloudy
7:51 PM 50.0 °F - 35.6 °F 58% 30.22 in 10.0 mi South 8.1 mph - N/A   Mostly Cloudy
8:51 PM 50.0 °F - 35.6 °F 58% 30.24 in 10.0 mi Calm Calm - N/A   Mostly Cloudy
8:55 PM 50.0 °F - 35.6 °F 58% 30.24 in 10.0 mi Calm Calm - N/A   Overcast
9:15 PM 48.2 °F - 35.6 °F 62% 30.26 in 10.0 mi South 4.6 mph - N/A   Overcast
9:35 PM 50.0 °F - 35.6 °F 58% 30.27 in 10.0 mi SW 5.8 mph - N/A   Overcast
10:15 PM 48.2 °F - 39.2 °F 71% 30.28 in 10.0 mi Calm Calm - N/A   Overcast
10:35 PM 48.2 °F - 41.0 °F 76% 30.29 in 10.0 mi SSW 5.8 mph - N/A   Overcast
10:55 PM 46.4 °F 41.9 °F 41.0 °F 81% 30.29 in 10.0 mi SSW 9.2 mph - N/A   Overcast
11:35 PM 48.2 °F - 39.2 °F 71% 30.27 in 10.0 mi SW 10.4 mph - N/A   Overcast
11:55 PM 46.4 °F 42.9 °F 39.2 °F 76% 30.26 in 10.0 mi SW 6.9 mph - N/A   Overcast